{"data":{"norad_id":59738,"epoch":"2026-05-25T05:10:44.948928Z","epoch_age_seconds":63357,"freshness":"FRESH","line1":"1 59738U 24090J   26145.21579802  .00000775  00000+0  37697-4 0  9993","line2":"2 59738  43.0031 111.3297 0000863 273.7833  86.2920 15.27576605115142","mean_motion":15.27576605,"eccentricity":8.63e-5,"inclination_deg":43.0031,"raan_deg":111.3297,"arg_perigee_deg":273.7833,"mean_anomaly_deg":86.292,"bstar":3.7697e-5,"rev_number":11514,"period_min":94.266958219094,"perigee_km":482.46714067242,"apogee_km":483.65138314723,"semimajor_km":6861.1962619098,"source":"CELESTRAK","updated_at":"2026-05-25T13:38:19.051966Z"}}